Home > Weather > Kuwait City > Past weeks

Flag for Kuwait Past Weather in Kuwait City, Kuwait — Yesterday and Last 2 Weeks

Now
86 °F

Clear.


Feels Like: 83 °F
Forecast: 90 / 107 °F
Wind: No wind

Location: Kuwait International Airport

Current Time: Aug 28, 2016 at 5:37:44 AM

Latest Report: Aug 28, 2016 at 5:00 AM


Visibility: 10 mi

Pressure: 29.65 "Hg

Humidity: 27%

Dew Point: 48 °F

Location of Kuwait CityLocation

Past Weather in Kuwait City — Graph

°F

Kuwait City Temperature Yesterday

Maximum temperature yesterday: 120 °F (at 2:00 PM)
Minimum temperature yesterday: 86 °F (at 6:00 AM)
Average temperature yesterday: 101 °F

High & Low Weather Summary for the Past Weeks

 TemperatureHumidityPressure
High120 °F (Aug 14, 1:00 PM)80% (Aug 23, 6:00 AM)29.71 "Hg (Aug 23, 6:00 AM)
Low84 °F (Aug 20, 6:00 AM)5% (Aug 14, 2:00 PM)29.45 "Hg (Aug 14, 5:00 PM)
Average102 °F24%29.56 "Hg
* Reported Aug 13 4:00 AM — Aug 28 4:00 AM, Kuwait City, Weather by CustomWeather, © 2016

Note: Actual official high and low records may vary slightly from our data, if they occured in-between our weather recording intervals... More about our weather records

Advertising

Kuwait City Weather History for the Previous 24 Hours

Scroll right to see more
 ConditionsComfort  
Time TempWeatherWind HumidityBarometerVisibility
4:00 AM
Sun, Aug 28
86 °FClear.3 mph29%29.62 "Hg10 mi
3:00 AM90 °FClear.7 mph26%29.62 "Hg10 mi
2:00 AM90 °FClear.5 mph27%29.59 "Hg10 mi
1:00 AM91 °FClear.7 mph28%29.62 "Hg10 mi
12:00 AM91 °FClear.5 mph30%29.62 "Hg10 mi
11:00 PM
Sat, Aug 27
95 °FClear.6 mph28%29.62 "Hg5 mi
10:00 PM95 °FClear.6 mph30%29.65 "Hg4 mi
9:00 PM97 °FClear.3 mph27%29.65 "Hg5 mi
8:00 PM100 °FClear.No wind24%29.65 "Hg10 mi
7:00 PM104 °FClear.3 mph24%29.62 "Hg10 mi
6:00 PM106 °FSunny.7 mph22%29.62 "Hg10 mi
5:00 PM109 °FSunny.8 mph19%29.62 "Hg10 mi
4:00 PM113 °FSunny.7 mph15%29.62 "Hg10 mi
3:00 PM117 °FSunny.5 mph9%29.62 "Hg10 mi
2:00 PM120 °FSunny.7 mph7%29.65 "Hg10 mi
1:00 PM118 °FClear.10 mph7%29.65 "Hg5 mi
12:00 PM115 °FClear.10 mph9%29.65 "Hg4 mi
11:00 AM111 °FSunny.13 mph11%29.68 "Hg4 mi
10:00 AM108 °FClear.10 mph13%29.71 "Hg4 mi
9:00 AM104 °FClear.3 mph12%29.71 "Hg4 mi
8:00 AM99 °FClear.No wind14%29.71 "Hg4 mi
7:00 AM91 °FSunny.5 mph23%29.68 "Hg10 mi
6:00 AM86 °FSunny.6 mph31%29.68 "Hg10 mi
5:00 AM88 °FClear.8 mph31%29.65 "Hg10 mi
Weather by CustomWeather, © 2016

See weather overviewHow to use our weather pages